Tracking 30995 objects as of 7-Jul-2025
HD Live streaming from Space Station
objects crossing your sky now

JILIN-01 GAOFEN 2D

Track JILIN-01 GAOFEN 2D now!
10-day predictions


NORAD ID: 49256
Int'l Code: 2021-086A
Perigee: 530.1 km
Apogee: 578.4 km
Inclination: 97.6 °
Period: 95.6 minutes
Semi major axis: 6925 km
RCS: Unknown
Launch date: September 27, 2021
Source: People's Republic of China (PRC)
Launch site: Jiuquan Satellite Launch Center, China (JSC)
Your satellite tracking list
Your tracking list is empty




NASA's NSSDC Master Catalog

Two Line Element Set (TLE):
1 49256U 21086A   25187.85824641  .00003005  00000-0  20542-3 0  9998
2 49256  97.6142 307.7842 0034907 242.8541 116.9125 15.06433742208658
Source of the keplerian elements: AFSPC